When you browse on this site, cookies collect data to enhance your experience and personalize the content and advertising you see.
Visit our Privacy Policy to learn more. By continuing to use the site, you agree to this use of cookies and data.

Hourly Weather Sliven

Today, 14 July, Tuesday

Time Temperature Precipitation Wind Pressure Humidity
00:00 +14°C° 0 mm 2 mps 733 mmHg 80%
01:00 +14°C° 0 mm 2 mps 733 mmHg 81%
02:00 +13°C° 0 mm 2 mps 733 mmHg 82%
03:00 +13°C° 0 mm 2 mps 733 mmHg 82%
04:00 +13°C° 0 mm 2 mps 733 mmHg 83%
05:00 +12°C° 0 mm 2 mps 733 mmHg 84%
06:00 +14°C° 0 mm 2 mps 733 mmHg 75%
07:00 +16°C° 0 mm 2 mps 733 mmHg 66%
08:00 +18°C° 0 mm 2 mps 734 mmHg 56%
09:00 +20°C° 0 mm 2 mps 733 mmHg 52%
10:00 +21°C° 0 mm 2 mps 733 mmHg 47%
11:00 +24°C° 0 mm 3 mps 733 mmHg 42%
12:00 +24°C° 0 mm 3 mps 733 mmHg 41%
13:00 +25°C° 0 mm 3 mps 733 mmHg 41%
14:00 +25°C° 0 mm 2 mps 733 mmHg 40%
15:00 +25°C° 0 mm 2 mps 732 mmHg 41%
16:00 +25°C° 0 mm 2 mps 732 mmHg 42%
17:00 +25°C° 0 mm 2 mps 732 mmHg 43%
18:00 +23°C° 0 mm 2 mps 732 mmHg 51%
19:00 +20°C° 0 mm 2 mps 732 mmHg 58%
20:00 +18°C° 0 mm 2 mps 732 mmHg 65%
21:00 +17°C° 0 mm 2 mps 732 mmHg 70%
22:00 +16°C° 0 mm 1 mps 732 mmHg 74%
23:00 +15°C° 0 mm 1 mps 733 mmHg 78%

Tomorrow, 15 July, Wednesday

Time Temperature Precipitation Wind Pressure Humidity
00:00 +14°C° 0 mm 1 mps 733 mmHg 79%
01:00 +14°C° 0 mm 1 mps 733 mmHg 81%
02:00 +14°C° 0 mm 1 mps 733 mmHg 82%
03:00 +14°C° 0 mm 1 mps 733 mmHg 82%
04:00 +14°C° 0 mm 1 mps 733 mmHg 81%
05:00 +13°C° 0 mm 0 mps 733 mmHg 81%
06:00 +16°C° 0 mm 1 mps 733 mmHg 73%
07:00 +19°C° 0 mm 1 mps 733 mmHg 65%
08:00 +21°C° 0 mm 1 mps 734 mmHg 57%
09:00 +23°C° 0 mm 1 mps 734 mmHg 52%
10:00 +24°C° 0 mm 1 mps 734 mmHg 46%
11:00 +25°C° 0 mm 2 mps 733 mmHg 41%
12:00 +26°C° 0 mm 2 mps 733 mmHg 39%
13:00 +27°C° 0 mm 2 mps 733 mmHg 37%
14:00 +27°C° 0 mm 2 mps 733 mmHg 35%
15:00 +27°C° 0 mm 2 mps 733 mmHg 36%
16:00 +27°C° 0 mm 2 mps 733 mmHg 38%
17:00 +27°C° 0 mm 2 mps 732 mmHg 39%
18:00 +25°C° 0 mm 2 mps 732 mmHg 47%
19:00 +21°C° 0 mm 2 mps 732 mmHg 56%
20:00 +19°C° 0 mm 2 mps 732 mmHg 64%
21:00 +18°C° 0 mm 2 mps 732 mmHg 67%
22:00 +18°C° 0 mm 1 mps 732 mmHg 70%
23:00 +16°C° 0 mm 1 mps 732 mmHg 74%

Day after tomorrow, 16 July, Thursday

Time Temperature Precipitation Wind Pressure Humidity
00:00 +16°C° 0 mm 1 mps 732 mmHg 74%
01:00 +16°C° 0 mm 1 mps 732 mmHg 75%
02:00 +14°C° 0 mm 0 mps 732 mmHg 76%
03:00 +14°C° 0 mm 0 mps 732 mmHg 76%
04:00 +14°C° 0 mm 0 mps 731 mmHg 76%
05:00 +14°C° 0 mm 0 mps 731 mmHg 76%
06:00 +16°C° 0 mm 0 mps 731 mmHg 69%
07:00 +20°C° 0 mm 1 mps 731 mmHg 62%
08:00 +23°C° 0 mm 1 mps 731 mmHg 55%
09:00 +24°C° 0 mm 1 mps 731 mmHg 50%
10:00 +25°C° 0 mm 1 mps 731 mmHg 46%
11:00 +27°C° 0 mm 1 mps 731 mmHg 41%
12:00 +27°C° 0 mm 1 mps 731 mmHg 40%
13:00 +28°C° 0 mm 2 mps 731 mmHg 38%
14:00 +28°C° 0 mm 2 mps 731 mmHg 37%
15:00 +28°C° 0 mm 2 mps 730 mmHg 38%
16:00 +28°C° 0 mm 2 mps 730 mmHg 39%
17:00 +27°C° 0 mm 3 mps 730 mmHg 40%
18:00 +25°C° 0 mm 2 mps 730 mmHg 47%
19:00 +23°C° 0 mm 2 mps 729 mmHg 55%
20:00 +20°C° 0 mm 2 mps 729 mmHg 62%
21:00 +20°C° 0 mm 1 mps 730 mmHg 66%
22:00 +19°C° 0 mm 1 mps 730 mmHg 71%
23:00 +18°C° 0 mm 1 mps 730 mmHg 75%

17 July, Friday

Time Temperature Precipitation Wind Pressure Humidity
00:00 +18°C° 0 mm 1 mps 730 mmHg 75%
01:00 +18°C° 0 mm 1 mps 730 mmHg 75%
02:00 +18°C° 0 mm 1 mps 729 mmHg 75%
03:00 +18°C° 0 mm 1 mps 729 mmHg 74%
04:00 +16°C° 0 mm 1 mps 729 mmHg 72%
05:00 +16°C° 0 mm 1 mps 729 mmHg 71%
06:00 +20°C° 0 mm 1 mps 729 mmHg 65%
07:00 +22°C° 0 mm 1 mps 730 mmHg 59%
08:00 +24°C° 0 mm 1 mps 730 mmHg 53%
09:00 +25°C° 0 mm 1 mps 730 mmHg 50%
10:00 +26°C° 0 mm 2 mps 730 mmHg 46%
11:00 +28°C° 0 mm 2 mps 730 mmHg 42%
12:00 +28°C° 0 mm 2 mps 730 mmHg 41%
13:00 +28°C° 0 mm 2 mps 730 mmHg 41%
14:00 +29°C° 0 mm 2 mps 729 mmHg 40%
15:00 +29°C° 0 mm 2 mps 729 mmHg 41%
16:00 +29°C° 0 mm 3 mps 729 mmHg 42%
17:00 +29°C° 0 mm 3 mps 729 mmHg 42%
18:00 +26°C° 0 mm 2 mps 729 mmHg 49%
19:00 +24°C° 0 mm 2 mps 729 mmHg 56%
20:00 +21°C° 0 mm 2 mps 728 mmHg 63%
21:00 +20°C° 0 mm 2 mps 729 mmHg 66%
22:00 +20°C° 0 mm 1 mps 729 mmHg 69%
23:00 +19°C° 0 mm 1 mps 729 mmHg 72%

18 July, Saturday

Time Temperature Precipitation Wind Pressure Humidity
00:00 +19°C° 0 mm 1 mps 729 mmHg 72%
01:00 +19°C° 0 mm 1 mps 729 mmHg 72%
02:00 +19°C° 0 mm 1 mps 729 mmHg 72%
03:00 +18°C° 0 mm 1 mps 729 mmHg 73%
04:00 +17°C° 0 mm 2 mps 729 mmHg 74%
05:00 +17°C° 0 mm 2 mps 729 mmHg 75%
06:00 +18°C° 0 mm 2 mps 729 mmHg 72%
07:00 +20°C° 0 mm 2 mps 730 mmHg 69%
08:00 +21°C° 0 mm 3 mps 730 mmHg 65%
09:00 +22°C° 0 mm 3 mps 730 mmHg 64%
10:00 +24°C° 0 mm 3 mps 730 mmHg 63%
11:00 +25°C° 0 mm 3 mps 730 mmHg 62%
12:00 +24°C° 0 mm 3 mps 730 mmHg 64%
13:00 +24°C° 0 mm 3 mps 730 mmHg 65%
14:00 +24°C° 0 mm 3 mps 730 mmHg 67%
15:00 +24°C° 0 mm 3 mps 730 mmHg 64%
16:00 +25°C° 0 mm 3 mps 729 mmHg 62%
17:00 +25°C° 0 mm 2 mps 729 mmHg 59%
18:00 +23°C° 0 mm 2 mps 729 mmHg 65%
19:00 +21°C° 0 mm 2 mps 729 mmHg 72%
20:00 +19°C° 0 mm 2 mps 730 mmHg 78%
21:00 +20°C° 0 mm 1 mps 730 mmHg 79%
22:00 +19°C° 0 mm 1 mps 730 mmHg 80%
23:00 +19°C° 0 mm 1 mps 730 mmHg 81%

19 July, Sunday

Time Temperature Precipitation Wind Pressure Humidity
00:00 +19°C° 0 mm 1 mps 730 mmHg 79%
01:00 +18°C° 0 mm 1 mps 730 mmHg 78%
02:00 +18°C° 0 mm 1 mps 730 mmHg 76%
03:00 +18°C° 0 mm 1 mps 730 mmHg 77%
04:00 +16°C° 0 mm 2 mps 730 mmHg 77%
05:00 +16°C° 0 mm 2 mps 730 mmHg 77%
06:00 +18°C° 0 mm 2 mps 731 mmHg 71%
07:00 +20°C° 0 mm 2 mps 731 mmHg 64%
08:00 +23°C° 0 mm 2 mps 731 mmHg 57%
09:00 +24°C° 0 mm 2 mps 731 mmHg 53%
10:00 +25°C° 0 mm 3 mps 731 mmHg 50%
11:00 +26°C° 0 mm 3 mps 731 mmHg 46%
12:00 +27°C° 0 mm 3 mps 731 mmHg 45%
13:00 +28°C° 0 mm 3 mps 730 mmHg 43%
14:00 +28°C° 0 mm 3 mps 730 mmHg 42%
15:00 +28°C° 0 mm 3 mps 730 mmHg 42%
16:00 +28°C° 0 mm 3 mps 730 mmHg 42%
17:00 +28°C° 0 mm 3 mps 729 mmHg 43%
18:00 +26°C° 0 mm 3 mps 729 mmHg 49%
19:00 +24°C° 0 mm 2 mps 729 mmHg 54%
20:00 +21°C° 0 mm 2 mps 729 mmHg 60%
21:00 +20°C° 0 mm 2 mps 729 mmHg 61%
22:00 +20°C° 0 mm 2 mps 730 mmHg 63%
23:00 +19°C° 0 mm 2 mps 730 mmHg 64%
Show more